User: anonymous
Location: Vale
(35.4830°N, 81.3830°W)
Time: 14:26:32
(UTC-04:00)
Language:

Cosmos 2237 Rocket - Orbit

View from above orbital plane
View from above orbital plane
View from above satellite
View from above satellite

Ground track
Ground track

The orbit data is extracted from the following two-line orbital elements,

1 22566U 93016B   14109.01501462  .00000369  00000-0  21562-3 0   363
2 22566 071.0086 331.4999 0008294 090.0518 270.1555 14.14833997 87873
Epoch (UTC): 19 April 2014 00:21:37
Eccentricity: 0.0008294
inclination: 71.0086°
perigee height: 837 km
apogee height: 849 km
right ascension of ascending node: 331.4999°
argument of perigee: 90.0518°
revolutions per day: 14.14833997
mean anomaly at epoch: 270.1555°
orbit number at epoch: 8787

The dashed part of the orbit path shows where the satellite is in the earth's shadow,  

DLR